Location: 10048 Water Well
(33.8501°N, 106.8364°W)
Time: 16:44:01
(UTC+00:00)

STARLINK-36134 - Pass Details

Date: 11 December 2025
Orbit: 480 x 481 km, 43.0° (Epoch: 16 January)

Event Time Altitude Azimuth Distance (km) Brightness Sun altitude
Exits shadow 12:29:09 26° 218° (SW) 962 3.6 -18.8°
Maximum altitude 12:31:02 60° 147° (SSE) 547 2.7 -18.5°
Drops below altitude 10° 12:34:44 10° 67° (ENE) 1,648 5.8 -17.7°
Sets 12:36:56 0° 63° (ENE) 2,530 6.7 -17.3°
